sat.trackr.live / text

‹ back to catalog

STARLINK-1316

NORAD 45415 · 2020-019BH

PAYLOAD ACTIVE UNKNOWN

§ Identity

Operator
Country
US
Launch date
2020-03-18
Launch site
AFETR
Launch vehicle
Mass (kg)
RCS (m²)

Purposes: comms

External: N2YO · Heavens-Above · Gunter

§ Orbital elements

Epoch: 2026-05-25T02:41:31.627104Z

Period
93.68 min
Inclination
53.1551°
Eccentricity
0.0006640
Mean motion
15.37094529 rev/d
Perigee alt
450.2 km
Apogee alt
459.2 km
Semi-major
6,832.8 km
B*
1.0598e-3
RAAN
132.4009°
Arg perigee
28.7368°
Mean anomaly
331.4001°
Rev number
34,172

§ Raw data

STARLINK-13161 45415U 20019BH  26145.11217161  .00038875  00000+0  10598-2 0  99942 45415  53.1551 132.4009 0006640  28.7368 331.4001 15.37094529341724

JSON: /api/v1/satellites/45415 · /tle

For live sub-satellite position, see the globe view (requires WebGL).

§ Visibility from observer

Set your observer location to see the next 7 days of passes ≥ 10°. The values pass through the URL so the page stays shareable.

No JS? Fill the form by hand. The geolocation button needs JavaScript.